Zurück zum Katalog

STARLINK-11119

AktivKommunikationVLEO
NORAD 60121·PAYLOAD·🇺🇸 United States

Gestartet Jun 24, 2024 von Vandenberg Space Force Base

Loading…

Nächste Überflüge (nächste 24 Stunden)

TLE

AktuellSource: CelesTrak SupGP

Epoche: Sep 14, 2026, 15:06 UTC

1 60121C 24118J   26257.62965278 -.00004837  00000+0 -39858-4 0  2570
2 60121  53.1573   9.6029 0001100  91.4120 206.8687 15.69702453    11

Verfolge STARLINK-11119 in Echtzeit mit AllMySat

Download on the App Store